Drummond Island, MI

11:40 PM EDT on April 27, 2017 (GMT -0400)
Drummond Island

Weather History for KDRM - June, 2013

Change the Weather History Date:

Sunday, June 16, 2013

  Actual Average (KCIU) Record (KCIU)
Temperature  
Mean Temperature 61 °F -  
Max Temperature 70 °F 69 °F 84 °F (2003)
Min Temperature 52 °F 47 °F 29 °F (1980)
Degree Days  
Heating Degree Days 4    
Growing Degree Days 11 (Base 50)    
Moisture  
Dew Point 57 °F    
Average Humidity 90    
Maximum Humidity 100    
Minimum Humidity 73    
Precipitation  
Precipitation 0.00 in - - ()
Sea Level Pressure  
Sea Level Pressure 29.77 in    
Wind  
Wind Speed 2 mph (West)    
Max Wind Speed 10 mph    
Max Gust Speed 22 mph    
Visibility 7 miles    
Events Fog , Rain    
Averages and records for this station are not official NWS values.
T = Trace of Precipitation, MM = Missing Value Source: NWS Daily Summary

Daily Weather History Graph

Daily Weather History Graph

Search for Another Location

Airport or City:

Trip Planner

Search our weather history database for the weather conditions in past years. The results will help you decide how hot, cold, wet, or windy it might be!

Date:

Astronomy

Jun. 16, 2013 Rise Set
Actual Time 5:43 AM EDT 9:28 PM EDT
Civil Twilight 5:04 AM EDT 10:06 PM EDT
Nautical Twilight 4:13 AM EDT 10:58 PM EDT
Astronomical Twilight 3:00 AM EDT 12:11 AM EDT
Moon 1:42 PM EDT (6/16) 1:10 AM EDT (6/16)
Length of Visible Light 17h 01m
Length of Day
15h 44m
Waxing Crescent, 49% of the Moon is Illuminated
Jun 16
Waxing Crescent
Jun 16
First Quarter
Jun 23
Full
Jun 30
Last Quarter
Jul 8
New

Hourly Weather History & Observations

Time (EDT) Temp. Dew Point Humidity Pressure Visibility Wind Dir Wind Speed Gust Speed Precip Events Conditions
12:16 AM 55.0 °F 51.1 °F 86% 29.85 in 10.0 mi Calm Calm - N/A Rain Light Rain
12:36 AM 54.5 °F 53.4 °F 96% 29.84 in 3.0 mi Calm Calm - N/A Rain Light Rain
12:56 AM 53.4 °F 52.9 °F 98% 29.84 in 3.0 mi Calm Calm - N/A Rain Heavy Rain
1:16 AM 52.7 °F 52.7 °F 100% 29.83 in 2.5 mi Calm Calm - N/A Rain Rain
1:36 AM 52.9 °F 52.7 °F 99% 29.82 in 5.0 mi Calm Calm - N/A Rain Light Rain
1:56 AM 52.7 °F 52.7 °F 100% 29.81 in 2.0 mi Calm Calm - N/A Rain Rain
2:16 AM 53.1 °F 53.1 °F 100% 29.81 in 5.0 mi Calm Calm - N/A Rain Rain
2:35 AM 53.2 °F 53.2 °F 100% 29.78 in 5.0 mi Calm Calm - N/A Rain Rain
2:56 AM 53.1 °F 53.1 °F 100% 29.78 in 10.0 mi East 3.5 mph - N/A Rain Light Rain
3:16 AM 53.2 °F 53.2 °F 100% 29.76 in 7.0 mi East 4.6 mph - N/A Rain Rain
3:36 AM 53.2 °F 53.2 °F 100% 29.75 in 7.0 mi Calm Calm - N/A Rain Light Rain
3:56 AM 53.8 °F 53.8 °F 100% 29.76 in 10.0 mi Calm Calm - N/A Rain Light Rain
4:15 AM 54.1 °F 54.1 °F 100% 29.76 in 7.0 mi Calm Calm - N/A   Drizzle
4:36 AM 53.8 °F 53.8 °F 100% 29.75 in 2.5 mi North 3.5 mph - N/A Rain Rain
4:56 AM 54.0 °F 54.0 °F 100% 29.75 in 2.5 mi Calm Calm - N/A   Light Drizzle
5:16 AM 54.1 °F 54.1 °F 100% 29.75 in 2.0 mi Calm Calm - N/A   Overcast
5:36 AM 54.0 °F 54.0 °F 100% 29.75 in 2.5 mi Calm Calm - N/A   Overcast
5:56 AM 54.0 °F 54.0 °F 100% 29.75 in 1.5 mi Calm Calm - N/A   Overcast
6:16 AM 54.1 °F 54.1 °F 100% 29.75 in 1.2 mi Calm Calm - N/A   Overcast
6:36 AM 54.1 °F 54.1 °F 100% 29.75 in 1.0 mi Calm Calm - N/A   Overcast
6:56 AM 54.1 °F 54.1 °F 100% 29.75 in 0.5 mi Calm Calm - N/A Fog Fog
7:16 AM 53.8 °F 53.8 °F 100% 29.76 in 0.8 mi Calm Calm - N/A   Overcast
7:36 AM 53.6 °F 53.6 °F 100% 29.75 in 0.8 mi Calm Calm - N/A   Overcast
7:56 AM 53.8 °F 53.8 °F 100% 29.75 in 0.8 mi Calm Calm - N/A   Overcast
8:16 AM 54.5 °F 54.5 °F 100% 29.76 in 0.8 mi Calm Calm - N/A   Overcast
8:36 AM 55.2 °F 55.2 °F 100% 29.77 in 0.8 mi Calm Calm - N/A   Overcast
8:55 AM 55.8 °F 55.8 °F 100% 29.75 in 0.8 mi Calm Calm - N/A   Overcast
9:16 AM 57.2 °F 57.2 °F 100% 29.77 in 3.0 mi Calm Calm - N/A   Overcast
9:35 AM 57.2 °F 57.2 °F 100% 29.76 in 7.0 mi Calm Calm - N/A   Overcast
9:56 AM 59.0 °F 58.8 °F 99% 29.76 in 7.0 mi SW 5.8 mph - N/A   Overcast
10:16 AM 60.3 °F 59.7 °F 98% 29.76 in 7.0 mi West 4.6 mph - N/A   Overcast
10:36 AM 61.5 °F 59.9 °F 94% 29.76 in 10.0 mi West 3.5 mph - N/A   Mostly Cloudy
10:56 AM 63.3 °F 60.3 °F 90% 29.75 in 10.0 mi West 4.6 mph - N/A   Overcast
11:15 AM 64.4 °F 60.8 °F 88% 29.75 in 10.0 mi WSW 3.5 mph - N/A   Mostly Cloudy
11:36 AM 66.7 °F 61.7 °F 84% 29.75 in 10.0 mi West 5.8 mph - N/A   Scattered Clouds
11:56 AM 68.0 °F 61.7 °F 80% 29.74 in 10.0 mi West 5.8 mph - N/A   Scattered Clouds
12:16 PM 66.9 °F 62.2 °F 85% 29.74 in 10.0 mi SSW 6.9 mph - N/A   Mostly Cloudy
12:36 PM 67.1 °F 61.7 °F 83% 29.73 in 10.0 mi SSW 6.9 mph - N/A   Scattered Clouds
12:56 PM 66.0 °F 61.7 °F 86% 29.73 in 10.0 mi SSW 10.4 mph - N/A   Scattered Clouds
1:16 PM 66.4 °F 61.9 °F 85% 29.72 in 10.0 mi SW 10.4 mph - N/A   Scattered Clouds
1:36 PM 68.2 °F 62.6 °F 82% 29.73 in 10.0 mi WSW 8.1 mph 11.5 mph N/A   Scattered Clouds
1:56 PM 69.1 °F 62.6 °F 80% 29.73 in 10.0 mi SW 10.4 mph - N/A   Scattered Clouds
2:16 PM 69.3 °F 62.8 °F 80% 29.74 in 10.0 mi WSW 6.9 mph 16.1 mph N/A   Mostly Cloudy
2:36 PM 68.2 °F 62.1 °F 81% 29.74 in 10.0 mi West 3.5 mph - N/A   Overcast
2:56 PM 62.6 °F 55.9 °F 79% 29.74 in 1.8 mi SSW 8.1 mph 21.9 mph N/A Rain Heavy Rain
3:16 PM 58.8 °F 56.3 °F 91% 29.74 in 10.0 mi Calm Calm - N/A   Overcast
3:36 PM 62.2 °F 60.8 °F 95% 29.75 in 7.0 mi West 6.9 mph - N/A Rain Light Rain
3:56 PM 63.7 °F 61.0 °F 91% 29.75 in 10.0 mi WSW 4.6 mph - N/A   Overcast
4:16 PM 65.8 °F 60.4 °F 83% 29.76 in 10.0 mi West 5.8 mph - N/A   Mostly Cloudy
4:35 PM 67.3 °F 61.0 °F 80% 29.76 in 10.0 mi WNW 5.8 mph - N/A   Scattered Clouds
4:56 PM 66.6 °F 61.7 °F 84% 29.77 in 10.0 mi WNW 6.9 mph - N/A   Scattered Clouds
5:16 PM 68.0 °F 61.7 °F 80% 29.77 in 10.0 mi NW 6.9 mph - N/A   Clear
5:35 PM 68.2 °F 60.8 °F 77% 29.77 in 10.0 mi NW 4.6 mph - N/A   Clear
5:56 PM 68.7 °F 59.9 °F 73% 29.76 in 10.0 mi West 5.8 mph - N/A   Clear
6:16 PM 68.9 °F 60.3 °F 74% 29.77 in 10.0 mi West 3.5 mph - N/A   Clear
6:36 PM 69.1 °F 60.8 °F 75% 29.77 in 10.0 mi Calm Calm - N/A   Clear
6:56 PM 69.3 °F 60.8 °F 74% 29.77 in 10.0 mi Calm Calm - N/A   Clear
7:16 PM 70.2 °F 61.2 °F 73% 29.76 in 10.0 mi WSW 3.5 mph - N/A   Clear
7:36 PM 67.6 °F 61.7 °F 81% 29.77 in 7.0 mi NW 4.6 mph - N/A Rain Heavy Rain
7:56 PM 62.8 °F 59.0 °F 87% 29.78 in 10.0 mi WNW 3.5 mph - N/A Rain Light Rain
8:16 PM 64.4 °F 59.5 °F 84% 29.78 in 10.0 mi West 3.5 mph - N/A   Scattered Clouds
8:36 PM 64.2 °F 57.7 °F 79% 29.78 in 10.0 mi Calm Calm - N/A   Clear
8:56 PM 62.8 °F 55.4 °F 77% 29.78 in 10.0 mi WNW 3.5 mph - N/A   Clear
9:15 PM 61.7 °F 54.7 °F 78% 29.80 in 10.0 mi West 4.6 mph - N/A   Clear
9:36 PM 60.8 °F 53.8 °F 78% 29.80 in 10.0 mi WNW 4.6 mph - N/A   Clear
9:56 PM 59.9 °F 54.1 °F 81% 29.80 in 10.0 mi WNW 3.5 mph - N/A   Clear
10:16 PM 58.8 °F 53.8 °F 83% 29.82 in 10.0 mi WNW 4.6 mph - N/A   Clear
10:36 PM 58.6 °F 53.1 °F 82% 29.82 in 10.0 mi WNW 4.6 mph - N/A   Scattered Clouds
10:56 PM 57.7 °F 53.1 °F 84% 29.81 in 10.0 mi Calm Calm - N/A   Scattered Clouds
11:16 PM 57.7 °F 52.9 °F 84% 29.82 in 10.0 mi West 4.6 mph - N/A   Mostly Cloudy
11:36 PM 57.2 °F 52.7 °F 85% 29.81 in 10.0 mi West 3.5 mph - N/A   Mostly Cloudy
11:56 PM 56.1 °F 52.2 °F 87% 29.80 in 10.0 mi Calm Calm - N/A   Clear